This is the latest recevied weather packets stored in our database for station/object K7KAR-2. If no packets are shown the sender has not sent any weather packets the latest 10 day(s).
| Time | Temp. | Humidity | Pressure | Rain* | Wind** | Luminosity | Snow |
|---|---|---|---|---|---|---|---|
| 1777485966 | 10.56° C | 15% | 1021.5 hPa | 0 mm | - | 874 W/m² | - |
| 1777485662 | 10.56° C | 15% | 1021.1 hPa | 0 mm | - | 218 W/m² | - |
| 1777485357 | 10.56° C | 16% | 1021.3 hPa | 0 mm | - | 888 W/m² | - |
| 1777485054 | 10.56° C | 16% | 1021.3 hPa | 0 mm | - | 854 W/m² | - |
| 1777484751 | 10.56° C | 15% | 1021.6 hPa | 0 mm | - | 842 W/m² | - |
| 1777484447 | 10.56° C | 15% | 1021.5 hPa | 0 mm | - | 840 W/m² | - |
| 1777484144 | 10.56° C | 16% | 1021.5 hPa | 0 mm | - | 832 W/m² | - |
| 1777483840 | 10.56° C | 16% | 1021.2 hPa | 0 mm | - | 831 W/m² | - |
| 1777483537 | 10.56° C | 17% | 1021.5 hPa | 0 mm | - | 829 W/m² | - |
| 1777483232 | 10° C | 17% | 1021.2 hPa | 0 mm | - | 830 W/m² | - |
| 1777482928 | 10° C | 17% | 1021 hPa | 0 mm | - | 829 W/m² | - |
| 1777482624 | 10.56° C | 18% | 1021.3 hPa | 0 mm | - | 837 W/m² | - |
| 1777482321 | 10.56° C | 17% | 1021.2 hPa | 0 mm | - | 857 W/m² | - |
| 1777482019 | 10° C | 17% | 1021.1 hPa | 0 mm | - | 862 W/m² | - |
| 1777481716 | 10° C | 16% | 1021.1 hPa | 0 mm | - | 860 W/m² | - |
| 1777481413 | 10.56° C | 18% | 1021.3 hPa | 0 mm | - | 870 W/m² | - |
| 1777481110 | 10° C | 19% | 1021.3 hPa | 0 mm | - | 875 W/m² | - |
| 1777480806 | 10° C | 20% | 1021.2 hPa | 0 mm | - | 886 W/m² | - |
| 1777480503 | 10.56° C | 20% | 1021.1 hPa | 0 mm | - | 881 W/m² | - |
| 1777480199 | 10° C | 19% | 1021.1 hPa | 0 mm | - | 888 W/m² | - |
| 1777479896 | 10° C | 19% | 1021.1 hPa | 0 mm | - | 914 W/m² | - |
| 1777479593 | 10° C | 20% | 1021.1 hPa | 0 mm | - | 904 W/m² | - |
| 1777479291 | 10° C | 19% | 1020.9 hPa | 0 mm | - | 848 W/m² | - |
| 1777478987 | 10° C | 19% | 1021 hPa | 0 mm | - | 331 W/m² | - |
| 1777478684 | 10° C | 21% | 1020.9 hPa | 0 mm | - | 856 W/m² | - |
* Rain latest hour (hover to see other rain measurements)
** Current wind speed in m/s (hover to see current wind gust speed)